Retour au catalogue

KUIPER-00155

ActifCommunicationsLEO
NORAD 65774·PAYLOAD·🇺🇸 United States

Lancé Sep 25, 2025 depuis Cape Canaveral Space Force Station

Loading…

Prochains Passages (prochaines 24 heures)

TLE

FraisSource: CelesTrak SupGP

Époque: Sep 14, 2026, 22:50 UTC

1 65774C 25217N   26257.95185185  .00001855  00000+0  24282-3 0  2576
2 65774  51.9010 241.2364 0000681  76.7126 291.0171 14.79923529    16

Suivez KUIPER-00155 en temps réel avec AllMySat

Download on the App Store